Wetbulb
58.98 58.15 57.31 56.77 56.32 55.73 55.59 55.56 55.80 55.99 55.95 56.15 56.36 56.53 56.60 56.58 55.99 51.88 43.56 48.98 51.89 58.72 56.35 48.17 47.92 46.99 46.72 43.61 43.56 39.73 33.69 31.18 32.89 34.02 36.88 38.54 38.28 40.93 42.03 43.86 43.02 45.24 44.63 49.18 53.89
60.51 58.98 57.95 57.25 56.70 56.22 55.52 55.38 55.48 55.82 55.83 55.93 56.11 56.27 56.60 56.31 50.17 46.33 53.26 58.17 59.28 58.99 48.16 47.31 45.25 45.65 41.80 42.29 41.40 36.52 31.15 34.51 36.81 35.91 34.90 37.44 36.59 37.73 39.80 37.65 38.43 40.77 49.76 52.29 53.63
58.53 59.64 58.77 57.86 57.21 56.60 55.97 55.31 55.23 55.56 55.58 55.76 55.91 56.22 56.52 54.31 45.51 44.19 58.12 59.36 59.02 56.38 49.91 48.51 47.87 46.37 40.74 41.63 39.93 36.91 33.67 36.67 37.91 38.42 38.56 37.67 36.50 37.24 36.96 36.43 39.85 39.80 47.69 51.01 51.33
56.52 57.59 58.85 58.62 57.73 57.07 56.44 55.70 55.22 55.25 55.26 55.38 55.68 56.17 56.76 49.93 34.93 49.73 59.64 60.41 59.31 51.56 48.76 45.90 44.13 42.02 39.52 38.90 42.73 36.11 39.53 38.54 41.11 40.48 38.66 36.84 37.84 37.33 37.82 39.31 40.77 41.18 46.80 50.52 50.43
55.06 55.87 57.17 58.65 58.27 57.45 56.74 55.96 55.31 55.02 55.04 54.96 55.36 56.20 50.12 43.53 43.17 53.69 59.31 57.98 50.95 49.35 46.91 43.91 41.90 40.68 38.23 39.99 41.12 38.43 38.74 40.39 40.36 40.09 38.78 38.85 37.55 37.13 37.81 40.25 41.30 41.89 44.29 48.89 49.50
53.88 54.39 55.34 56.65 58.91 57.83 57.04 56.31 55.51 55.01 54.91 54.82 55.02 56.13 44.66 36.39 51.11 55.44 53.15 51.29 49.60 47.76 46.66 44.97 42.56 43.35 39.88 39.23 39.26 39.60 39.01 39.70 40.63 39.45 38.73 37.42 35.48 35.70 39.15 38.40 39.05 40.55 41.01 44.76 48.64
52.17 53.46 54.00 55.22 57.55 58.08 57.74 56.92 55.98 55.40 55.18 54.83 54.95 52.70 44.38 41.05 49.63 52.57 51.61 49.31 49.61 47.56 45.12 46.74 45.74 41.62 40.70 37.75 42.44 40.48 36.44 37.84 38.10 38.22 37.98 37.01 34.29 35.07 40.38 38.81 38.43 39.12 40.40 41.89 43.17
52.00 51.86 52.85 54.09 55.93 58.35 57.28 57.41 56.75 55.85 55.27 54.91 54.85 48.84 39.05 48.07 47.14 49.43 49.97 47.91 49.12 49.42 47.42 47.55 46.87 43.85 41.28 41.46 38.55 36.15 36.73 31.58 36.88 38.32 38.93 37.72 32.30 37.39 40.01 38.15 39.05 38.74 38.10 40.19 41.99
52.26 52.24 51.95 53.13 54.58 56.67 57.34 56.72 56.48 55.74 55.32 54.77 46.18 43.56 38.42 50.50 44.93 47.80 48.22 46.49 47.66 47.87 47.42 48.75 45.60 41.02 40.56 34.63 32.05 32.46 28.35 31.22 35.11 38.47 37.84 36.05 33.08 36.79 38.40 38.19 38.38 37.98 38.72 38.99 39.46
52.40 51.82 51.14 52.40 53.62 54.92 57.07 56.31 55.72 54.19 53.38 52.88 49.47 38.99 41.71 40.28 44.60 46.59 47.33 48.10 45.45 44.65 43.63 42.47 39.25 34.58 33.93 32.03 26.30 29.14 27.60 30.79 31.16 35.64 36.16 34.05 35.43 38.39 39.24 38.44 37.17 36.67 36.59 36.37 38.34
52.60 51.63 50.70 51.22 52.49 54.28 55.82 51.51 46.67 44.62 46.20 40.99 40.54 39.50 42.00 45.23 47.52 44.98 47.10 45.88 44.86 41.19 34.32 38.52 32.95 29.40 34.19 34.67 32.60 32.68 30.98 29.33 31.73 35.90 33.95 33.74 34.39 36.38 37.27 35.79 35.06 35.26 35.84 35.59 37.77
52.48 51.91 50.66 50.63 51.73 53.02 53.55 47.55 48.02 48.48 41.97 44.90 44.36 42.93 44.72 45.48 40.71 43.39 47.45 40.77 39.54 34.10 36.76 34.29 30.78 35.94 36.83 36.25 33.81 31.99 30.70 31.09 33.23 34.94 33.34 32.88 34.44 37.87 37.06 36.22 36.10 36.39 35.67 36.80 39.19
51.90 52.06 51.01 50.30 50.67 50.10 50.03 49.70 49.67 51.58 44.78 44.34 44.67 43.65 43.26 44.09 40.69 40.44 44.11 41.26 37.08 34.40 34.44 31.49 33.76 37.26 36.43 34.15 33.24 31.81 30.62 30.74 30.44 33.42 32.86 32.14 32.87 35.32 37.57 37.78 38.07 37.50 36.71 37.02 40.10
51.33 51.64 51.39 50.00 44.83 48.21 48.71 50.69 50.83 52.68 38.73 38.22 41.00 43.86 43.39 44.28 38.24 44.97 45.51 41.48 36.94 33.75 34.54 34.03 37.12 35.27 33.70 33.24 34.55 29.98 34.63 34.06 32.57 28.98 25.81 30.30 26.20 31.65 34.08 35.66 36.52 36.19 35.61 35.69 37.73
50.44 50.77 50.99 49.94 45.43 45.59 49.57 50.23 51.06 49.66 25.55 38.46 39.26 45.99 43.69 40.21 40.12 40.59 45.13 40.69 34.81 34.65 34.93 32.01 33.50 32.73 32.57 33.68 35.76 32.56 34.95 33.01 31.50 28.21 26.48 26.33 24.94 30.76 32.61 33.20 35.69 36.26 36.64 36.19 38.14
49.85 50.39 50.87 47.70 43.57 45.56 50.94 50.22 49.57 33.32 23.36 35.08 37.36 35.45 36.43 39.31 39.31 40.64 40.69 41.05 40.29 35.71 34.53 32.31 35.96 34.35 33.65 34.47 34.34 36.30 35.17 33.34 29.83 27.56 17.19 26.92 26.48 27.76 31.59 32.79 34.02 35.58 35.75 37.23 37.44
48.96 50.03 48.74 46.91 39.14 45.51 48.68 47.48 32.36 25.79 34.92 33.40 32.59 35.74 35.12 34.08 36.59 37.85 35.52 33.07 30.66 26.15 25.62 30.66 31.40 33.97 35.41 32.17 34.72 33.73 29.58 19.13 17.47 12.01 18.63 25.91 24.73 29.22 33.27 34.64 34.57 36.24 36.00 36.68 37.30
47.92 48.57 47.82 46.80 46.96 47.59 45.43 37.39 23.70 27.56 31.58 35.94 34.74 34.87 32.09 34.69 35.51 36.25 33.76 31.33 35.35 31.11 24.66 25.83 21.02 31.66 35.18 33.21 31.66 30.93 29.36 23.20 16.98 15.98 21.10 25.67 24.24 31.04 34.37 34.52 35.17 35.84 36.74 36.87 37.04
46.61 44.10 43.64 46.30 46.19 43.93 39.26 28.17 29.13 30.06 34.78 33.02 34.38 30.66 31.30 34.13 34.20 34.95 32.88 31.45 33.83 33.07 27.72 25.35 26.81 32.48 33.50 33.92 34.01 30.38 26.70 31.66 23.68 16.80 20.66 25.37 28.67 33.44 33.25 33.07 33.16 34.96 36.16 36.26 36.79
40.64 39.41 39.29 46.04 46.41 41.73 31.02 28.40 31.58 36.69 37.38 35.37 29.51 32.70 29.22 31.27 31.38 31.91 30.96 34.47 34.53 36.77 38.79 33.13 26.31 28.86 32.05 33.99 33.40 30.18 33.31 25.11 23.52 14.81 16.56 20.94 24.93 28.81 30.75 31.71 32.48 32.30 32.77 34.61 35.91
39.79 32.15 39.30 45.91 44.87 34.72 25.03 26.71 31.84 38.10 38.22 34.96 31.30 31.66 32.22 31.03 31.98 31.07 30.90 35.06 37.32 36.95 39.77 36.08 32.02 26.55 30.46 28.90 28.48 28.54 26.34 28.45 29.61 26.38 20.85 18.52 25.39 31.79 32.57 33.53 33.82 34.48 35.48 34.87 34.60
37.13 27.20 39.32 44.58 31.96 31.67 27.11 27.98 34.38 35.27 38.80 38.03 35.66 34.65 33.38 33.06 31.58 31.23 30.82 34.88 39.51 38.19 33.83 38.59 32.97 25.90 27.74 31.57 33.10 31.29 30.24 31.39 26.71 20.69 23.80 24.67 26.18 34.47 34.69 35.28 35.97 35.22 36.17 36.04 36.77
31.68 31.73 40.55 41.73 25.67 27.77 29.40 29.17 31.56 32.56 36.50 37.24 34.32 37.33 35.80 33.48 30.26 33.34 34.08 37.30 38.71 37.45 35.43 38.43 31.65 24.19 26.99 30.80 30.14 27.19 29.02 31.25 31.79 28.33 22.69 22.82 25.18 34.56 34.72 35.11 35.86 35.28 35.78 36.70 37.39
31.33 25.60 32.58 36.38 34.41 28.28 27.31 26.84 25.80 32.41 33.20 37.86 36.51 36.15 35.29 33.51 35.38 32.35 33.50 34.58 37.33 38.17 41.26 41.03 31.89 29.88 27.47 28.09 28.14 23.94 27.92 31.01 30.95 24.59 24.73 24.86 26.15 30.59 32.28 33.60 35.57 35.20 35.81 36.20 35.60
31.66 27.95 28.58 24.20 27.66 30.08 29.88 28.14 25.99 25.19 31.41 36.25 35.39 36.32 33.24 27.99 30.38 31.45 31.41 32.77 35.77 39.69 38.78 37.52 28.56 28.00 27.08 28.39 28.88 28.28 29.40 30.36 27.28 28.99 28.62 28.29 26.47 33.12 34.58 34.34 33.97 35.74 37.71 36.15 30.41
29.48 27.81 30.17 22.91 29.43 30.11 29.45 27.04 27.39 28.25 30.43 30.22 31.82 34.37 36.63 30.35 33.94 28.93 32.41 31.69 32.85 34.30 34.96 33.94 23.74 25.37 24.40 26.60 28.42 27.52 28.93 30.64 30.70 25.56 22.07 24.41 25.79 35.12 36.32 35.77 34.13 36.39 36.91 35.96 35.82
34.58 33.91 29.95 27.78 23.62 27.50 26.58 27.36 27.48 30.98 32.70 34.49 35.44 33.59 32.81 36.68 36.40 37.76 38.29 36.52 35.84 34.76 33.83 32.67 26.66 24.36 23.39 24.72 27.20 26.14 25.41 28.28 29.11 28.15 30.66 26.87 33.98 34.80 33.77 35.22 35.08 36.70 36.80 36.23 36.18
MSLP
1016.63 1016.96 1016.82 1017.00 1016.94 1016.94 1016.89 1016.85 1016.88 1016.91 1016.76 1016.73 1016.65 1016.52 1016.36 1016.34 1016.28 1016.18 1015.59 1014.20 1014.06 1013.70 1013.92 1013.90 1014.08 1014.22 1014.28 1014.46 1014.44 1014.84 1015.78 1015.78 1014.45 1013.48 1012.66 1012.31 1012.09 1011.58 1011.45 1011.52 1011.38 1011.44 1011.77 1011.92 1012.34
1016.52 1016.80 1016.56 1016.62 1016.72 1016.90 1016.75 1016.76 1016.76 1016.83 1016.75 1016.64 1016.51 1016.37 1016.31 1016.19 1016.31 1015.64 1013.98 1013.68 1013.89 1013.87 1013.84 1013.90 1014.09 1014.29 1014.66 1014.72 1014.81 1015.18 1015.76 1014.74 1013.53 1013.01 1012.76 1012.61 1012.65 1012.33 1012.12 1012.14 1011.98 1011.86 1012.33 1012.60 1012.89
1016.85 1016.61 1016.39 1016.33 1016.49 1016.63 1016.70 1016.59 1016.64 1016.75 1016.71 1016.61 1016.46 1016.26 1016.18 1016.10 1016.05 1014.15 1013.37 1013.57 1013.77 1014.01 1013.94 1013.79 1013.81 1014.15 1014.67 1014.75 1014.88 1015.02 1015.02 1014.03 1013.25 1012.96 1012.94 1012.97 1012.94 1012.88 1012.71 1012.59 1012.07 1011.96 1012.58 1013.05 1013.39
1017.02 1017.03 1016.28 1016.15 1016.17 1016.46 1016.66 1016.55 1016.37 1016.61 1016.58 1016.48 1016.52 1016.19 1016.06 1016.10 1015.42 1013.67 1013.49 1013.66 1013.75 1014.08 1014.15 1013.93 1013.97 1014.29 1014.61 1014.63 1014.46 1014.76 1014.11 1013.87 1013.33 1013.07 1013.11 1013.11 1013.06 1013.12 1012.83 1011.94 1011.54 1011.95 1012.41 1012.94 1013.29
1017.10 1016.95 1016.39 1015.91 1015.93 1016.17 1016.40 1016.37 1016.25 1016.40 1016.45 1016.36 1016.42 1016.27 1016.08 1015.97 1014.40 1013.56 1013.54 1013.83 1014.00 1014.10 1014.19 1014.22 1014.08 1014.28 1014.32 1014.33 1014.31 1014.42 1013.98 1013.67 1013.33 1013.32 1013.28 1013.12 1013.23 1013.34 1012.32 1011.58 1011.49 1011.76 1012.32 1012.74 1012.99
1016.71 1016.66 1016.23 1016.01 1015.58 1015.90 1016.12 1016.20 1016.12 1016.14 1016.29 1016.33 1016.25 1016.26 1016.29 1015.41 1013.37 1013.51 1013.69 1013.98 1014.15 1014.17 1014.12 1014.28 1014.14 1014.04 1014.10 1014.00 1014.24 1014.02 1013.94 1013.69 1013.29 1013.21 1013.23 1013.24 1013.25 1013.40 1011.35 1011.01 1011.01 1011.29 1011.56 1012.00 1012.32
1016.46 1016.53 1016.24 1016.12 1015.59 1015.38 1015.75 1015.86 1015.76 1015.87 1016.22 1016.21 1016.23 1016.19 1016.06 1014.14 1013.25 1013.53 1013.77 1013.88 1013.91 1014.17 1014.20 1014.00 1013.96 1014.11 1014.11 1014.01 1014.07 1014.01 1014.26 1013.70 1013.05 1013.01 1013.34 1013.38 1013.03 1012.58 1010.98 1011.05 1011.07 1011.12 1011.30 1011.63 1011.82
1016.23 1016.20 1016.24 1016.01 1015.48 1015.05 1015.18 1015.42 1015.66 1015.69 1015.91 1016.12 1016.10 1016.37 1015.27 1013.56 1013.53 1013.69 1013.83 1013.84 1013.82 1014.04 1014.10 1013.92 1013.90 1014.16 1014.32 1014.43 1014.31 1014.36 1014.45 1014.11 1012.93 1013.05 1013.22 1013.36 1012.59 1011.34 1010.91 1011.11 1011.22 1011.13 1011.29 1011.47 1011.62
1015.87 1015.91 1015.96 1015.69 1015.50 1014.89 1014.78 1015.26 1015.56 1015.66 1015.64 1015.93 1016.21 1016.34 1014.81 1013.49 1013.78 1013.53 1013.61 1013.83 1013.92 1014.02 1014.01 1014.00 1014.17 1014.54 1014.74 1015.02 1015.17 1014.83 1014.56 1014.06 1013.14 1012.97 1013.13 1013.38 1012.44 1011.35 1011.22 1011.45 1011.52 1011.49 1011.41 1011.51 1011.61
1015.26 1015.56 1015.46 1015.37 1015.06 1014.81 1014.52 1014.98 1015.36 1015.68 1015.78 1015.74 1016.08 1016.40 1014.52 1013.50 1013.39 1013.44 1013.57 1013.75 1014.07 1014.29 1014.51 1014.59 1015.03 1015.32 1015.44 1015.34 1014.87 1014.57 1014.38 1013.67 1013.21 1013.05 1013.18 1013.30 1012.43 1011.55 1011.33 1011.66 1011.44 1011.56 1011.39 1011.65 1011.82
1014.68 1014.90 1014.99 1015.17 1015.01 1014.65 1014.54 1015.19 1015.66 1016.31 1015.53 1014.32 1014.50 1014.41 1013.90 1013.41 1013.27 1013.47 1013.64 1013.95 1014.14 1014.64 1015.03 1015.18 1015.63 1015.12 1014.13 1014.24 1014.06 1013.96 1013.76 1013.40 1012.87 1012.85 1013.12 1012.80 1012.29 1011.29 1010.89 1010.97 1010.85 1011.19 1011.39 1011.70 1012.08
1014.10 1014.26 1014.55 1014.61 1014.57 1014.51 1014.07 1013.53 1013.40 1013.12 1013.85 1013.80 1014.03 1013.91 1013.75 1013.69 1013.63 1013.60 1013.62 1014.16 1014.33 1014.75 1015.21 1015.73 1015.04 1014.09 1014.40 1014.66 1014.41 1014.23 1014.00 1013.73 1013.30 1013.17 1013.31 1012.90 1011.66 1010.64 1010.40 1010.46 1010.60 1010.66 1011.49 1012.04 1012.59
1013.28 1013.50 1013.69 1014.15 1014.42 1014.25 1013.45 1012.78 1012.95 1012.85 1013.35 1013.43 1013.40 1013.22 1013.07 1013.63 1013.40 1013.19 1013.51 1013.92 1014.24 1014.69 1014.90 1015.02 1014.01 1013.66 1014.21 1014.43 1014.69 1014.24 1014.16 1013.98 1013.82 1013.70 1013.68 1013.57 1011.83 1010.50 1010.00 1010.33 1010.77 1011.08 1011.78 1012.51 1012.83
1012.52 1012.83 1013.16 1013.81 1014.57 1013.31 1012.67 1012.79 1012.69 1013.22 1013.54 1012.88 1012.83 1011.84 1011.93 1013.08 1012.94 1012.34 1012.73 1013.24 1013.93 1014.25 1015.03 1014.75 1013.66 1013.67 1013.87 1013.92 1014.05 1014.32 1013.76 1014.13 1014.57 1014.82 1015.13 1014.39 1013.22 1011.09 1010.35 1010.45 1011.23 1011.82 1012.43 1012.95 1013.55
1011.70 1011.98 1012.42 1012.93 1013.11 1012.90 1012.27 1012.13 1012.76 1013.90 1012.12 1010.90 1011.44 1010.83 1010.90 1011.99 1012.59 1012.35 1012.29 1012.82 1013.22 1013.70 1014.40 1013.75 1013.60 1013.57 1013.65 1013.23 1013.53 1013.92 1014.03 1014.74 1015.39 1016.10 1016.22 1015.50 1015.05 1011.48 1010.79 1010.80 1011.12 1011.86 1012.53 1013.20 1013.74
1010.76 1011.12 1011.68 1012.07 1012.58 1012.58 1012.29 1012.26 1012.65 1013.78 1010.56 1010.36 1010.65 1010.48 1011.32 1011.30 1012.20 1012.44 1012.51 1012.80 1012.91 1013.54 1013.87 1013.97 1013.71 1013.55 1013.32 1013.55 1013.58 1014.17 1015.03 1015.99 1017.14 1017.71 1017.69 1015.83 1015.15 1012.61 1011.29 1010.83 1011.15 1011.62 1012.43 1013.06 1013.80
1010.02 1010.27 1010.80 1011.29 1011.44 1011.61 1012.19 1012.15 1011.25 1010.67 1009.86 1010.19 1009.98 1010.05 1010.24 1010.53 1012.11 1012.26 1012.42 1012.70 1012.54 1013.66 1014.02 1014.35 1014.22 1013.78 1013.59 1014.02 1014.14 1014.41 1015.64 1017.79 1018.89 1019.30 1017.81 1016.27 1015.63 1012.31 1011.24 1010.93 1011.10 1011.75 1012.34 1013.04 1013.72
1009.43 1009.55 1009.61 1010.39 1010.64 1010.97 1011.80 1010.81 1009.70 1008.38 1008.14 1008.35 1009.06 1009.69 1010.03 1010.52 1012.03 1012.48 1013.04 1012.95 1012.24 1012.39 1013.44 1013.95 1014.96 1014.01 1013.59 1013.58 1013.70 1014.60 1015.19 1016.45 1017.61 1018.75 1017.77 1016.68 1014.88 1011.89 1011.31 1011.13 1011.22 1011.52 1012.21 1013.03 1013.73
1008.62 1009.08 1009.19 1009.28 1010.20 1010.83 1011.17 1009.17 1007.32 1006.46 1006.45 1007.78 1008.80 1009.25 1009.83 1010.28 1010.70 1012.06 1012.79 1012.55 1011.65 1011.61 1012.08 1013.14 1013.94 1014.12 1013.94 1013.72 1013.85 1014.73 1015.14 1015.20 1016.56 1018.59 1017.46 1015.82 1013.90 1012.18 1011.80 1011.72 1011.79 1012.06 1012.62 1013.18 1013.65
1007.82 1008.65 1007.96 1008.33 1009.51 1010.13 1010.57 1007.73 1006.91 1005.78 1005.07 1006.37 1006.76 1007.78 1008.62 1008.87 1009.78 1010.53 1011.39 1010.67 1010.80 1010.50 1010.91 1011.78 1013.57 1014.61 1014.49 1014.15 1014.20 1014.10 1014.24 1015.15 1016.26 1017.46 1017.11 1015.43 1014.24 1012.40 1012.21 1012.28 1012.34 1012.60 1012.78 1013.10 1013.64
1007.17 1007.51 1006.82 1007.40 1008.94 1007.98 1006.73 1006.91 1006.35 1005.15 1004.66 1004.97 1005.40 1006.69 1007.27 1007.71 1008.10 1009.32 1009.18 1008.76 1009.03 1009.17 1010.32 1011.70 1012.53 1015.09 1014.86 1014.30 1013.84 1014.50 1014.15 1014.31 1014.71 1015.46 1015.56 1015.27 1013.20 1011.73 1011.89 1012.27 1012.59 1012.84 1012.97 1013.30 1013.72
1005.90 1005.58 1006.15 1006.60 1006.58 1005.52 1005.40 1005.25 1005.79 1004.77 1004.75 1004.48 1004.32 1004.82 1005.59 1006.38 1007.05 1007.92 1007.81 1005.67 1006.79 1008.08 1009.85 1011.34 1013.04 1014.19 1014.32 1014.11 1014.09 1013.78 1013.42 1013.17 1013.62 1015.06 1015.17 1014.71 1013.03 1011.61 1012.00 1012.45 1012.73 1013.08 1013.22 1013.54 1014.00
1004.45 1004.80 1005.46 1005.20 1004.23 1004.40 1004.67 1004.89 1004.67 1004.76 1004.07 1004.13 1004.33 1003.90 1004.29 1005.06 1006.26 1006.53 1006.54 1006.45 1006.26 1007.43 1008.22 1010.72 1012.23 1013.88 1014.72 1014.99 1014.46 1014.04 1013.35 1012.77 1012.79 1013.32 1014.10 1014.46 1013.31 1012.37 1012.70 1012.96 1013.01 1013.28 1013.57 1014.11 1014.44
1003.89 1004.17 1004.04 1003.14 1003.71 1003.79 1004.00 1003.67 1004.16 1003.99 1004.04 1004.11 1003.86 1003.70 1004.14 1004.61 1004.88 1005.71 1006.42 1006.64 1006.60 1007.04 1007.79 1009.33 1010.88 1011.30 1011.67 1011.60 1012.26 1013.47 1012.84 1012.65 1012.53 1013.09 1013.47 1013.04 1013.15 1012.98 1013.03 1013.11 1013.18 1013.20 1013.61 1014.31 1014.90
1002.35 1001.95 1001.58 1001.81 1002.72 1002.94 1003.44 1003.23 1003.04 1003.22 1003.76 1003.47 1003.83 1003.66 1003.38 1004.46 1004.98 1005.39 1005.96 1006.64 1007.02 1007.05 1008.40 1009.67 1010.61 1011.43 1011.64 1011.62 1011.49 1011.43 1011.46 1011.88 1011.89 1011.96 1012.25 1012.36 1012.43 1011.83 1011.97 1012.45 1012.98 1013.22 1013.73 1014.49 1015.03
1000.13 1001.18 1000.74 1001.11 1001.37 1001.61 1001.50 1002.03 1001.78 1002.05 1001.90 1002.61 1002.84 1003.41 1003.19 1003.11 1002.74 1003.83 1003.94 1005.21 1005.88 1007.43 1008.10 1009.23 1010.36 1010.78 1012.26 1012.17 1011.81 1011.61 1011.13 1010.83 1010.76 1011.04 1011.44 1011.53 1011.46 1010.69 1011.29 1012.43 1013.11 1013.56 1014.21 1014.80 1015.20
999.94 1000.43 1000.14 1000.51 1000.59 1001.24 1000.28 1000.31 1001.18 1001.65 1001.28 1001.02 1001.75 1002.42 1003.30 1003.00 1002.84 1003.12 1003.86 1004.64 1004.87 1006.27 1007.03 1008.71 1010.20 1011.15 1012.50 1012.57 1012.25 1011.59 1009.63 1010.30 1010.38 1010.30 1010.13 1010.60 1010.19 1010.53 1011.53 1012.25 1012.85 1013.57 1014.14 1014.82 1015.27
Wind_Speed
9 9 7 8 6 5 5 4 4 4 4 5 5 6 6 8 10 2 5 7 5 8 5 3 1 1 2 2 0 3 5 3 5 3 2 3 2 2 2 1 3 1 3 2 10
9 10 8 8 8 7 5 4 4 5 5 5 5 6 7 6 2 7 8 6 5 6 4 6 5 3 1 1 2 5 4 9 5 1 3 2 2 3 3 2 4 3 4 5 7
14 11 10 8 9 8 7 5 4 4 5 6 6 6 6 3 2 6 4 8 6 4 1 2 3 5 2 3 3 4 6 5 2 2 2 2 3 2 2 5 10 7 7 7 5
13 15 13 10 9 9 9 7 4 4 4 5 7 6 5 0 4 1 2 6 7 4 0 3 3 5 4 5 5 3 7 4 3 2 2 3 2 6 6 10 1 5 6 8 9
10 12 13 10 11 10 10 8 5 4 4 4 6 7 2 1 8 2 6 5 4 4 3 3 4 5 5 4 3 4 4 3 2 5 6 2 6 6 12 13 11 8 5 10 9
11 12 11 14 12 12 11 8 6 4 3 4 4 5 2 4 2 6 7 5 2 3 4 2 4 3 2 3 6 3 2 6 6 5 4 4 2 1 9 5 4 7 10 11 13
13 11 12 15 14 13 11 10 7 4 3 3 4 0 2 11 2 6 7 5 3 2 3 3 1 2 0 1 0 1 5 7 6 3 5 1 7 10 12 5 4 5 5 6 11
13 12 12 12 10 13 12 9 7 6 3 3 2 1 7 2 1 6 4 3 3 3 2 2 2 2 1 1 2 0 2 4 1 5 2 4 9 4 6 6 8 7 7 7 8
11 11 12 12 13 11 13 10 5 5 4 1 2 1 9 2 3 5 4 5 5 1 2 3 3 3 2 4 3 1 4 5 5 5 3 3 7 5 3 3 7 8 8 6 6
12 11 12 11 12 15 14 11 7 3 3 3 2 2 4 4 3 5 4 6 3 5 4 3 4 3 1 5 8 8 5 5 5 3 2 3 13 12 10 8 13 10 9 8 8
14 12 12 12 11 13 11 7 5 1 6 10 9 4 1 2 2 3 4 5 4 4 6 3 4 11 19 8 0 5 2 2 2 2 2 7 10 15 10 9 10 8 8 3 6
18 15 12 12 11 11 7 6 4 3 3 12 4 6 3 3 2 4 7 6 6 6 5 4 10 11 6 6 6 2 1 4 3 0 2 6 15 13 7 5 5 6 7 7 6
14 18 14 11 12 7 8 9 4 2 2 5 8 8 5 7 6 10 11 5 4 7 9 8 5 9 9 6 7 4 5 3 3 1 1 5 10 5 1 3 6 8 5 4 8
16 14 16 9 4 4 6 9 7 3 6 6 8 10 9 4 6 8 9 6 4 10 8 5 4 5 6 7 8 5 7 5 3 4 4 2 6 5 4 1 4 4 5 6 6
18 13 18 17 2 3 1 13 8 4 8 8 6 3 10 15 4 5 4 4 8 8 9 9 5 6 5 5 7 5 3 7 4 4 3 2 2 10 2 1 3 5 6 6 7
18 16 19 11 3 3 3 10 5 7 9 7 6 9 12 14 5 4 5 0 3 4 2 3 1 2 5 3 3 9 7 9 6 4 2 7 7 8 3 2 1 2 4 7 7
21 17 15 6 5 9 7 8 8 15 3 9 9 11 15 10 9 4 14 10 9 7 5 2 2 1 3 6 4 5 6 4 4 4 7 2 4 10 3 1 2 5 7 7 7
20 21 11 10 5 8 6 9 12 5 12 5 9 15 13 14 10 12 9 15 12 4 5 9 4 8 5 5 8 6 6 8 9 5 4 1 8 7 2 3 3 1 6 5 6
20 9 7 11 10 4 5 16 10 15 16 11 13 14 6 10 10 7 11 15 11 10 9 7 5 3 2 1 4 7 6 4 8 2 4 5 6 5 2 3 3 4 5 6 6
7 8 13 11 14 8 8 22 9 8 10 13 8 7 12 20 9 15 18 15 13 12 3 5 5 1 2 1 1 3 5 4 3 4 4 4 5 6 6 5 3 3 2 4 5
8 6 6 12 11 8 16 18 14 9 2 16 10 10 9 15 15 14 19 5 24 20 8 3 3 1 3 7 8 4 3 3 5 5 7 3 7 5 8 8 8 5 3 3 4
10 9 5 16 15 5 12 24 18 9 14 4 5 5 12 15 16 12 17 15 24 15 22 6 4 5 4 2 3 2 6 7 7 6 2 3 7 1 8 8 7 5 3 4 5
9 6 4 18 19 16 5 18 17 19 11 8 7 5 5 12 9 13 11 3 14 18 24 15 6 5 3 5 3 5 5 4 4 3 8 8 6 2 5 6 5 6 5 4 4
6 8 7 13 12 19 13 15 21 19 6 9 4 5 8 7 1 13 9 2 5 11 16 16 3 6 10 4 10 8 8 8 5 4 6 7 6 6 8 9 6 4 6 6 4
11 9 8 9 16 22 20 15 23 19 19 14 8 11 7 7 3 5 5 6 4 15 9 13 8 4 3 3 3 5 13 17 12 7 12 8 10 14 17 12 9 7 6 5 4
9 12 2 6 20 23 25 18 26 24 19 25 18 18 9 7 14 14 13 6 9 4 14 5 3 5 0 2 0 4 7 20 18 4 4 4 6 4 8 6 6 7 7 5 4
7 4 11 11 5 16 18 24 23 21 14 27 24 19 21 17 1 3 6 9 11 14 21 13 6 3 4 2 3 6 12 14 10 5 13 10 6 6 6 10 9 8 7 6 5
Wind_Direction
262 257 249 263 260 261 279 290 297 305 315 324 331 330 329 322 313 241 240 228 206 172 165 123 135 347 48 329 238 99 69 209 246 216 222 334 353 318 292 288 323 239 164 286 127
276 253 250 250 257 259 252 269 288 300 312 319 326 329 330 338 273 246 242 213 186 169 152 150 157 120 61 281 333 98 138 217 215 211 216 304 326 328 353 338 280 289 39 64 122
354 327 255 252 250 251 251 239 266 287 307 319 322 326 333 349 325 248 255 189 180 170 76 153 110 137 136 128 220 175 198 217 250 205 195 231 272 312 243 258 226 220 160 155 161
351 340 349 254 249 250 245 240 231 267 295 319 321 326 331 294 240 20 148 153 147 146 325 160 127 138 165 189 205 208 238 234 266 252 254 257 289 299 213 225 234 174 170 178 185
338 334 339 319 241 242 244 238 226 245 280 309 324 330 335 288 253 160 137 130 117 130 177 172 139 145 178 203 174 208 268 264 275 287 262 298 243 243 262 253 253 240 198 196 208
316 327 337 339 246 236 236 229 226 225 258 298 323 341 278 245 136 148 136 127 152 143 166 173 194 189 234 210 168 199 260 277 287 274 265 250 242 93 267 258 252 208 233 208 207
285 313 318 334 329 216 225 218 208 204 245 285 314 42 293 245 164 155 150 175 167 175 165 199 212 152 262 275 252 187 313 312 238 231 224 68 284 231 248 291 273 287 257 218 217
283 279 310 313 304 232 209 209 196 182 196 268 313 166 245 290 137 145 181 166 194 212 261 230 113 137 145 301 28 92 85 313 202 139 181 119 274 278 305 178 237 251 238 240 239
265 279 286 303 321 307 194 189 193 192 177 167 99 170 265 326 149 207 154 157 135 167 279 112 86 161 73 94 6 319 221 209 299 196 112 169 271 275 8 327 291 269 268 258 244
245 262 272 291 310 322 179 164 124 30 240 138 255 3 261 224 199 171 191 146 138 123 65 96 63 119 81 146 209 193 209 228 233 195 162 236 263 275 268 266 254 260 264 257 238
236 240 261 268 285 301 158 124 101 159 243 182 185 225 47 308 111 147 159 136 101 97 160 208 137 202 207 191 35 145 171 211 229 188 196 234 268 280 279 252 264 246 243 160 121
247 228 238 258 274 289 254 188 192 147 202 232 246 253 188 261 128 208 133 154 148 176 143 96 234 217 162 196 225 300 112 255 289 243 210 314 288 273 284 266 283 243 165 147 116
257 235 225 243 271 282 243 201 146 122 239 184 199 195 192 156 225 198 155 166 152 162 180 173 225 175 173 174 195 221 190 203 207 333 244 321 295 328 26 90 36 50 102 104 140
239 240 209 209 265 234 229 151 125 55 242 206 210 232 149 181 248 180 176 150 190 186 156 245 245 155 168 193 150 192 198 167 145 80 228 11 274 308 331 49 72 107 134 155 154
234 235 215 184 191 232 223 149 137 86 241 147 160 139 156 157 162 218 166 139 176 177 139 230 192 162 170 190 164 210 142 156 118 104 44 287 73 271 318 170 204 187 188 188 182
224 224 212 212 166 235 207 151 138 208 238 171 156 168 160 182 160 119 151 133 165 135 68 187 286 206 178 104 168 147 80 49 53 78 15 223 156 280 226 202 175 175 194 189 180
232 218 216 178 194 194 199 181 204 199 166 181 186 177 171 164 158 176 179 186 167 125 176 130 215 282 169 86 31 89 94 22 4 8 216 332 132 245 249 253 201 201 201 196 179
249 236 220 199 175 137 169 204 228 171 184 108 153 157 179 139 188 169 188 204 229 107 121 157 235 175 188 193 173 177 165 158 193 190 212 28 224 249 225 336 70 35 169 164 171
211 246 228 199 193 122 207 229 188 181 190 148 136 147 184 169 136 141 185 211 213 178 153 145 215 325 63 91 135 183 199 166 104 33 69 209 275 293 110 59 64 113 150 190 187
202 240 226 182 177 172 207 226 196 221 144 148 150 169 174 177 146 169 165 188 218 198 166 200 106 336 347 117 27 163 167 85 0 134 230 283 275 239 201 181 146 134 186 223 206
197 201 222 169 182 190 195 218 230 238 191 171 175 163 187 176 170 188 189 183 195 195 129 155 76 248 144 211 175 152 192 194 125 154 164 160 252 219 187 170 160 164 129 59 193
202 203 225 162 210 203 200 200 222 245 234 241 164 139 173 175 175 188 206 176 191 161 180 176 112 174 181 279 331 303 204 182 147 228 207 148 265 121 149 152 148 160 104 64 68
204 197 222 183 215 214 157 212 199 216 218 174 205 204 159 167 167 191 184 209 169 175 167 163 191 114 94 350 341 228 215 224 115 89 191 145 248 79 120 141 176 140 107 86 65
180 221 188 194 222 211 191 200 204 213 226 186 277 166 147 159 182 179 158 98 172 174 143 152 162 201 195 167 143 192 197 205 160 173 155 210 165 197 193 183 197 152 125 111 82
182 209 197 192 217 209 192 198 201 213 208 195 211 232 166 144 126 161 133 135 39 149 143 157 195 141 349 328 126 171 189 192 203 170 194 188 187 199 195 190 187 173 133 109 56
177 216 248 172 200 206 182 205 201 199 186 208 216 214 252 171 188 187 155 168 163 187 153 199 177 122 92 344 333 207 222 206 209 191 67 103 251 210 166 139 158 161 144 124 97
199 259 181 225 189 221 197 189 200 199 230 202 204 214 209 230 329 124 168 146 163 176 179 177 135 128 182 44 2 294 206 192 195 197 169 182 206 140 143 179 171 163 148 139 112